Back to catalog

COSMOS 1691 DEB

AlivePO
NORAD 43318·DEBRIS·🇷🇺 Russia

Launched Oct 9, 1985 from Plesetsk Cosmodrome

Loading…

Next Passes (next 24 hours)

TLE

AgingSource: Space-Track

Epoch: Sep 4, 2026, 13:42 UTC

1 43318U 85094AC  26247.57114767  .00000247  00000-0  99796-3 0  9990
2 43318  82.5844 346.2558 0014407   2.6245 357.4931 12.82633033554838

Track COSMOS 1691 DEB in real time with AllMySat

Download on the App Store